Time,TemperatureF,DewpointF,PressureIn,WindDirection,WindDirectionDegrees,WindSpeedMPH,WindSpeedGustMPH,Humidity,HourlyPrecipIn,Conditions,Clouds,dailyrainin,SoftwareType,DateUTC
2015-08-29 00:03:00,62.0,41.0,-100.00,East,95,3.0,4.0,46,-99.99,,,-99.99,,2015-08-29 06:03:00,
2015-08-29 00:13:00,64.0,43.0,-100.00,North,355,4.0,4.0,47,-99.99,,,-99.99,,2015-08-29 06:13:00,
2015-08-29 00:23:00,64.0,43.0,-100.00,North,355,4.0,4.0,47,-99.99,,,-99.99,,2015-08-29 06:23:00,
2015-08-29 00:33:00,60.0,43.0,-100.00,North,-9999,0.0,1.0,53,-99.99,,,-99.99,,2015-08-29 06:33:00,
2015-08-29 00:44:00,60.0,43.0,-100.00,North,-9999,0.0,1.0,53,-99.99,,,-99.99,,2015-08-29 06:44:00,
2015-08-29 00:54:00,60.0,43.0,-100.00,North,-9999,0.0,1.0,54,-99.99,,,-99.99,,2015-08-29 06:54:00,
2015-08-29 01:03:00,60.0,43.0,-100.00,North,-9999,0.0,1.0,54,-99.99,,,-99.99,,2015-08-29 07:03:00,
2015-08-29 01:12:00,59.0,44.0,-100.00,NE,35,2.0,2.0,56,-99.99,,,-99.99,,2015-08-29 07:12:00,
2015-08-29 01:23:00,59.0,44.0,-100.00,NE,35,2.0,2.0,56,-99.99,,,-99.99,,2015-08-29 07:23:00,
2015-08-29 01:33:00,57.0,47.0,-100.00,North,-9999,0.0,1.0,68,-99.99,,,-99.99,,2015-08-29 07:33:00,
2015-08-29 01:44:00,57.0,47.0,-100.00,North,-9999,0.0,1.0,68,-99.99,,,-99.99,,2015-08-29 07:44:00,
2015-08-29 01:53:00,56.0,46.0,-100.00,NE,40,4.0,6.0,68,-99.99,,,-99.99,,2015-08-29 07:53:00,
2015-08-29 02:03:00,56.0,46.0,-100.00,NE,40,4.0,6.0,68,-99.99,,,-99.99,,2015-08-29 08:03:00,
2015-08-29 02:12:00,56.0,46.0,-100.00,NNE,15,2.0,4.0,69,-99.99,,,-99.99,,2015-08-29 08:12:00,
2015-08-29 02:23:00,56.0,46.0,-100.00,NNE,15,2.0,4.0,69,-99.99,,,-99.99,,2015-08-29 08:23:00,
2015-08-29 02:33:00,56.0,46.0,-100.00,ENE,60,1.0,4.0,69,-99.99,,,-99.99,,2015-08-29 08:33:00,
2015-08-29 02:44:00,56.0,46.0,-100.00,ENE,60,1.0,4.0,69,-99.99,,,-99.99,,2015-08-29 08:44:00,
2015-08-29 02:54:00,53.0,45.0,-100.00,NE,45,1.0,1.0,73,-99.99,,,-99.99,,2015-08-29 08:54:00,
2015-08-29 03:03:00,53.0,45.0,-100.00,NE,45,1.0,1.0,73,-99.99,,,-99.99,,2015-08-29 09:03:00,
2015-08-29 03:12:00,53.0,46.0,-100.00,NE,50,4.0,5.0,77,-99.99,,,-99.99,,2015-08-29 09:12:00,
2015-08-29 03:23:00,53.0,46.0,-100.00,NE,50,4.0,5.0,77,-99.99,,,-99.99,,2015-08-29 09:23:00,
2015-08-29 03:33:00,55.0,46.0,-100.00,North,-9999,0.0,4.0,71,-99.99,,,-99.99,,2015-08-29 09:33:00,
2015-08-29 03:44:00,55.0,46.0,-100.00,North,-9999,0.0,4.0,71,-99.99,,,-99.99,,2015-08-29 09:44:00,
2015-08-29 03:54:00,55.0,46.0,-100.00,North,-9999,0.0,4.0,71,-99.99,,,-99.99,,2015-08-29 09:54:00,
2015-08-29 04:03:00,55.0,46.0,-100.00,North,-9999,0.0,4.0,71,-99.99,,,-99.99,,2015-08-29 10:03:00,
2015-08-29 04:23:00,56.0,46.0,-100.00,SSE,160,1.0,4.0,69,-99.99,,,-99.99,,2015-08-29 10:23:00,
2015-08-29 04:33:00,55.0,46.0,-100.00,North,-9999,0.0,3.0,72,-99.99,,,-99.99,,2015-08-29 10:33:00,
2015-08-29 04:44:00,55.0,46.0,-100.00,North,-9999,0.0,3.0,72,-99.99,,,-99.99,,2015-08-29 10:44:00,
2015-08-29 04:54:00,54.0,45.0,-100.00,NNE,20,4.0,5.0,73,-99.99,,,-99.99,,2015-08-29 10:54:00,
2015-08-29 05:03:00,54.0,45.0,-100.00,NNE,20,4.0,5.0,73,-99.99,,,-99.99,,2015-08-29 11:03:00,
2015-08-29 05:13:00,53.0,45.0,-100.00,North,10,3.0,6.0,74,-99.99,,,-99.99,,2015-08-29 11:13:00,
2015-08-29 05:23:00,53.0,45.0,-100.00,North,10,3.0,6.0,74,-99.99,,,-99.99,,2015-08-29 11:23:00,
2015-08-29 05:33:00,54.0,45.0,-100.00,NNE,30,6.0,6.0,72,-99.99,,,-99.99,,2015-08-29 11:33:00,
2015-08-29 05:44:00,54.0,45.0,-100.00,NNE,30,6.0,6.0,72,-99.99,,,-99.99,,2015-08-29 11:44:00,
2015-08-29 05:54:00,53.0,45.0,-100.00,NE,35,2.0,6.0,74,-99.99,,,-99.99,,2015-08-29 11:54:00,
2015-08-29 06:03:00,53.0,45.0,-100.00,NE,35,2.0,6.0,74,-99.99,,,-99.99,,2015-08-29 12:03:00,
2015-08-29 06:13:00,53.0,45.0,-100.00,NE,40,1.0,4.0,74,-99.99,,,-99.99,,2015-08-29 12:13:00,
2015-08-29 06:23:00,53.0,45.0,-100.00,NE,40,1.0,4.0,74,-99.99,,,-99.99,,2015-08-29 12:23:00,
2015-08-29 06:34:00,51.0,44.0,-100.00,East,100,2.0,3.0,76,-99.99,,,-99.99,,2015-08-29 12:34:00,
2015-08-29 06:44:00,51.0,44.0,-100.00,East,100,2.0,3.0,76,-99.99,,,-99.99,,2015-08-29 12:44:00,
2015-08-29 06:54:00,52.0,45.0,-100.00,NNE,30,2.0,3.0,76,-99.99,,,-99.99,,2015-08-29 12:54:00,
2015-08-29 07:03:00,52.0,45.0,-100.00,NNE,30,2.0,3.0,76,-99.99,,,-99.99,,2015-08-29 13:03:00,